Estherville, IA

1:45 PM CST on February 22, 2018 (GMT -0600)
Estherville Municipal

Weather History for KEST - January, 2013

Change the Weather History Date:

Thursday, January 31, 2013

  Actual Average Record
Temperature  
Mean Temperature -1 °F 17 °F  
Max Temperature 5 °F 26 °F 45 °F (1952)
Min Temperature -8 °F 8 °F -18 °F (1985)
Degree Days  
Heating Degree Days 66 48  
Month to date heating degree days 1466 1530  
Since 1 July heating degree days 4394 4671  
Cooling Degree Days 0 0  
Month to date cooling degree days 0 0  
Year to date cooling degree days 0 0  
Moisture  
Dew Point -9 °F    
Average Humidity 71    
Maximum Humidity 83    
Minimum Humidity 59    
Precipitation  
Precipitation 0.00 in 0.03 in 0.17 in (1967)
Month to date precipitation 0.29 0.50  
Sea Level Pressure  
Sea Level Pressure 30.11 in    
Wind  
Wind Speed 22 mph (NW)    
Max Wind Speed 32 mph    
Max Gust Speed 39 mph    
Visibility 10 miles    
Events      
T = Trace of Precipitation, MM = Missing Value Source: NWS Daily Summary

Daily Weather History Graph

Daily Weather History Graph

Search for Another Location

Airport or City:

Trip Planner

Search our weather history database for the weather conditions in past years. The results will help you decide how hot, cold, wet, or windy it might be!

Date:

Astronomy

Jan. 31, 2013 Rise Set
Actual Time 7:35 AM CST 5:29 PM CST
Civil Twilight 7:05 AM CST 6:00 PM CST
Nautical Twilight 6:31 AM CST 6:34 PM CST
Astronomical Twilight 5:57 AM CST 7:08 PM CST
Moon 10:44 PM CST (1/31) 9:25 AM CST (1/31)
Length of Visible Light 10h 54m
Length of Day
9h 54m
Waning Gibbous, 79% of the Moon is Illuminated
Jan 31
Waning Gibbous
Feb 3
Last Quarter
Feb 10
New
Feb 17
First Quarter
Feb 25
Full

Hourly Weather History & Observations

Time (CST) Temp. Windchill Dew Point Humidity Pressure Visibility Wind Dir Wind Speed Gust Speed Precip Events Conditions
12:06 AM 5.0 °F -15.2 °F -0.4 °F 78% 29.82 in 6.0 mi WNW 19.6 mph - N/A   Haze
12:18 AM 5.0 °F -16.2 °F -2.2 °F 72% 29.82 in 10.0 mi WNW 21.9 mph - N/A   Scattered Clouds
12:33 AM 5.0 °F -14.7 °F -2.2 °F 72% 29.83 in 10.0 mi WNW 18.4 mph - N/A   Mostly Cloudy
12:52 AM 3.9 °F -16.6 °F -2.0 °F 76% 29.91 in 10.0 mi NW 19.6 mph - N/A   Mostly Cloudy
1:07 AM 3.2 °F -15.9 °F -2.2 °F 78% 29.83 in 10.0 mi NW 16.1 mph - N/A   Scattered Clouds
1:52 AM 1.9 °F -16.2 °F -5.1 °F 72% 29.91 in 10.0 mi WNW 13.8 mph 23.0 mph N/A   Clear
2:52 AM -0.0 °F -21.8 °F -7.1 °F 72% 29.94 in 10.0 mi NW 19.6 mph - N/A   Clear
3:40 AM -0.4 °F -23.3 °F -7.6 °F 72% 29.86 in 10.0 mi NW 21.9 mph 29.9 mph N/A   Mostly Cloudy
3:52 AM -0.0 °F -22.4 °F -7.1 °F 72% 29.96 in 10.0 mi WNW 20.7 mph - N/A   Overcast
4:52 AM -0.9 °F -23.5 °F -8.0 °F 72% 29.97 in 10.0 mi WNW 20.7 mph 28.8 mph N/A   Overcast
5:52 AM -0.9 °F -24.1 °F -8.0 °F 72% 30.01 in 10.0 mi NW 21.9 mph - N/A   Overcast
6:20 AM -2.2 °F -26.7 °F -9.4 °F 71% 29.92 in 10.0 mi NW 24.2 mph - N/A   Scattered Clouds
6:52 AM -2.9 °F -25.0 °F -9.9 °F 72% 30.04 in 10.0 mi WNW 18.4 mph - N/A   Clear
7:52 AM -4.0 °F -27.6 °F -11.0 °F 72% 30.07 in 10.0 mi NW 20.7 mph 27.6 mph N/A   Clear
8:52 AM -2.9 °F -27.6 °F -11.0 °F 68% 30.11 in 10.0 mi NW 24.2 mph 29.9 mph N/A   Clear
9:52 AM -0.9 °F -23.5 °F -11.0 °F 62% 30.14 in 10.0 mi NNW 20.7 mph 32.2 mph N/A   Clear
10:52 AM -0.0 °F -25.5 °F -9.9 °F 63% 30.18 in 10.0 mi NW 28.8 mph 38.0 mph N/A   Clear
12:33 PM 1.4 °F -21.9 °F -9.4 °F 61% 30.11 in 8.0 mi NW 24.2 mph 34.5 mph N/A   Mostly Cloudy
12:52 PM 1.0 °F -23.2 °F -9.0 °F 63% 30.22 in 6.0 mi NW 26.5 mph 35.7 mph N/A   Haze
1:44 PM 1.4 °F -22.3 °F -9.4 °F 61% 30.13 in 10.0 mi NW 25.3 mph 33.4 mph N/A   Mostly Cloudy
1:52 PM 1.9 °F -22.0 °F -9.0 °F 60% 30.24 in 10.0 mi NW 26.5 mph 33.4 mph N/A   Mostly Cloudy
2:52 PM 3.0 °F -21.0 °F -8.0 °F 60% 30.25 in 10.0 mi NW 27.6 mph 33.4 mph N/A   Clear
3:52 PM 3.0 °F -21.0 °F -8.0 °F 60% 30.28 in 10.0 mi NW 27.6 mph 32.2 mph N/A   Clear
4:52 PM 1.0 °F -21.9 °F -9.0 °F 63% 30.30 in 10.0 mi NW 23.0 mph - N/A   Clear
5:52 PM -0.9 °F -23.0 °F -9.9 °F 66% 30.32 in 10.0 mi WNW 19.6 mph 28.8 mph N/A   Clear
6:52 PM -2.0 °F -25.0 °F -11.0 °F 66% 30.35 in 10.0 mi WNW 20.7 mph 27.6 mph N/A   Clear
7:52 PM -4.0 °F -27.0 °F -13.0 °F 65% 30.37 in 10.0 mi NW 19.6 mph 25.3 mph N/A   Clear
8:52 PM -5.1 °F -27.8 °F -14.1 °F 65% 30.39 in 10.0 mi WNW 18.4 mph - N/A   Clear
9:52 PM -6.0 °F -29.0 °F -15.0 °F 65% 30.40 in 10.0 mi WNW 18.4 mph - N/A   Clear
10:52 PM -7.1 °F -29.8 °F -15.0 °F 68% 30.41 in 10.0 mi NW 17.3 mph - N/A   Clear
11:52 PM -8.0 °F -29.6 °F -16.1 °F 68% 30.41 in 10.0 mi NW 15.0 mph - N/A   Clear